Temp
100 94 80 81 80 80 81 81 81 80 80 80 80 80 79 79 80 80 80 80 80 81 81 82 81 81 81 81 80 80 80 80 80 80 80 80 80 79 80 80 80 90 79
101 93 80 80 80 80 81 81 81 80 80 80 80 79 79 79 79 79 79 80 80 81 81 81 81 81 81 81 80 80 80 80 80 81 80 80 80 80 79 79 79 84 78
98 92 88 80 80 80 80 80 80 80 80 80 80 79 79 79 79 79 79 80 80 81 81 81 81 81 81 80 80 80 79 80 80 80 81 94 94 80 80 80 79 78 78
96 91 92 80 80 80 80 79 79 79 80 79 79 79 79 79 79 79 79 80 80 81 81 81 81 81 80 80 80 80 79 80 80 80 92 97 96 79 80 80 79 79 78
94 93 91 80 80 80 80 79 79 79 79 79 79 79 79 79 79 79 79 80 80 81 81 81 81 80 80 80 80 79 79 80 80 83 96 97 97 85 80 80 80 79 79
95 95 83 79 79 80 79 79 79 79 79 79 79 79 79 79 78 78 79 79 80 81 81 81 80 80 80 80 79 79 80 80 80 96 94 92 91 79 80 80 80 80 79
97 96 88 79 79 79 80 79 79 78 78 79 79 79 79 78 78 78 79 79 80 80 80 80 79 79 79 79 79 79 80 80 91 95 95 93 94 80 80 80 80 80 79
98 96 91 80 79 79 79 79 78 78 78 78 78 78 78 78 78 78 78 79 80 80 80 79 79 78 78 79 79 79 79 79 90 95 94 96 80 79 79 80 79 79 79
100 97 93 91 85 79 78 78 78 78 78 78 78 78 78 78 78 78 78 78 79 79 79 78 78 78 78 79 79 78 78 79 90 97 94 96 77 78 79 80 79 79 79
100 100 97 94 93 91 88 78 78 78 78 77 77 77 77 78 78 78 77 78 78 78 78 78 78 78 78 79 78 78 78 79 93 94 96 97 78 78 79 79 79 79 79
99 98 99 96 93 95 95 87 79 78 78 77 79 77 78 90 87 84 83 78 78 78 78 78 78 78 78 78 78 78 78 95 96 97 98 81 78 78 79 79 79 79 79
95 98 100 94 95 96 96 90 90 89 89 88 88 85 90 91 90 91 86 78 78 78 78 78 77 78 79 94 90 80 92 96 96 97 98 80 77 78 79 79 79 79 79
96 96 98 92 92 95 96 93 93 92 91 90 89 87 90 91 90 91 92 88 87 80 89 85 85 89 92 95 96 96 97 95 97 98 92 78 77 78 80 80 79 79 78
94 94 94 92 90 90 96 93 94 94 92 92 91 88 89 89 89 89 92 92 89 92 90 91 92 91 90 91 93 95 95 95 97 97 92 78 77 77 79 80 80 80 80
91 91 90 89 88 88 90 92 93 93 92 93 92 90 91 90 88 90 90 92 92 93 92 90 91 91 90 91 92 93 92 93 93 93 95 79 76 76 77 79 80 80 80
90 89 89 87 86 86 88 89 90 90 91 92 93 92 89 90 89 90 89 89 90 90 90 91 90 90 90 92 91 90 89 91 91 89 93 92 76 75 76 77 79 80 80
91 89 87 86 84 81 85 85 88 90 92 92 93 90 89 88 88 87 89 88 88 85 86 87 88 88 89 89 87 88 87 86 87 87 87 88 88 75 75 77 77 78 79
91 89 88 89 84 80 81 82 87 90 91 93 92 92 87 87 87 85 89 88 89 87 88 87 87 87 85 86 85 87 87 87 86 84 85 82 83 83 80 75 76 77 77
90 89 87 87 85 80 80 83 80 85 88 91 90 87 82 85 86 86 89 89 85 87 86 85 85 83 82 83 78 80 81 85 84 85 84 79 83 84 83 77 74 75 75
90 89 87 86 82 79 78 78 79 83 85 85 82 84 85 85 86 85 86 86 84 85 84 83 79 78 72 73 76 78 81 84 83 82 85 89 89 87 86 85 84 84 75
88 87 86 82 79 76 74 75 78 80 80 82 87 87 86 87 85 83 81 84 82 83 80 71 71 70 76 74 73 81 84 86 83 87 87 88 89 89 90 88 87 90 88
86 85 85 83 76 75 77 79 82 83 83 87 87 84 85 85 84 83 83 82 76 73 71 70 69 70 74 78 77 80 77 82 85 86 89 88 87 89 90 89 87 85 85
86 84 84 84 76 76 78 77 79 82 84 83 77 76 78 80 80 78 76 76 73 73 76 75 75 74 77 82 80 80 77 78 82 87 84 87 84 86 86 87 86 85 83
88 88 86 84 76 76 76 77 79 82 82 84 82 82 78 77 78 80 77 75 75 77 73 77 79 77 79 78 84 82 80 80 76 76 86 87 87 86 84 85 84 83 82
92 89 86 82 74 73 74 78 81 81 85 85 85 80 78 76 79 80 79 75 76 78 78 78 79 78 81 80 82 83 81 82 80 76 74 80 85 87 87 86 85 82 80
92 89 84 72 71 71 74 77 78 79 80 83 82 82 80 77 79 78 80 79 79 79 79 80 76 76 76 79 80 79 80 79 78 78 76 76 77 81 85 85 83 83 82
MSLP
1005.01 1006.50 1007.86 1008.31 1008.70 1009.05 1009.28 1009.48 1009.72 1010.10 1010.41 1010.79 1011.17 1011.60 1011.97 1012.28 1012.58 1012.74 1012.83 1013.11 1013.36 1013.48 1013.60 1013.69 1013.88 1014.13 1014.30 1014.40 1014.55 1014.64 1014.75 1014.87 1014.92 1014.96 1015.05 1015.09 1015.15 1015.25 1015.26 1015.37 1015.39 1014.64 1015.74
1005.01 1006.70 1007.94 1008.23 1008.61 1008.92 1009.27 1009.55 1009.82 1010.15 1010.55 1010.90 1011.30 1011.67 1012.03 1012.40 1012.70 1012.91 1013.15 1013.42 1013.58 1013.77 1013.96 1014.10 1014.27 1014.35 1014.52 1014.61 1014.74 1014.81 1014.93 1015.02 1015.05 1015.06 1015.06 1015.12 1015.24 1015.37 1015.54 1015.65 1015.60 1015.45 1015.93
1005.19 1006.69 1007.78 1008.12 1008.51 1009.01 1009.40 1009.64 1010.01 1010.42 1010.74 1011.07 1011.44 1011.87 1012.33 1012.62 1012.86 1013.04 1013.25 1013.51 1013.69 1013.91 1014.14 1014.34 1014.52 1014.58 1014.63 1014.62 1014.73 1014.89 1015.04 1015.14 1015.23 1015.29 1015.09 1013.85 1014.04 1015.37 1015.52 1015.70 1015.79 1015.87 1016.02
1005.46 1006.51 1007.16 1008.23 1008.60 1009.04 1009.42 1009.79 1010.18 1010.54 1010.87 1011.23 1011.65 1012.03 1012.42 1012.79 1013.08 1013.24 1013.39 1013.58 1013.82 1013.96 1014.11 1014.26 1014.39 1014.48 1014.62 1014.81 1014.90 1015.02 1015.08 1015.18 1015.30 1015.24 1014.20 1013.86 1013.85 1015.29 1015.53 1015.60 1015.70 1015.83 1016.07
1005.74 1006.43 1007.22 1008.31 1008.74 1009.25 1009.67 1009.96 1010.30 1010.60 1011.01 1011.44 1011.79 1012.15 1012.54 1012.83 1013.10 1013.32 1013.52 1013.77 1013.98 1014.12 1014.19 1014.32 1014.50 1014.64 1014.77 1014.90 1015.08 1015.18 1015.28 1015.28 1015.29 1014.82 1013.68 1013.83 1013.99 1014.80 1015.35 1015.46 1015.56 1015.57 1015.62
1005.70 1006.28 1007.75 1008.32 1008.82 1009.32 1009.93 1010.40 1010.54 1010.74 1011.16 1011.59 1011.96 1012.33 1012.62 1012.89 1013.16 1013.33 1013.55 1013.76 1014.02 1014.18 1014.32 1014.50 1014.71 1014.86 1014.96 1015.05 1015.18 1015.28 1015.40 1015.37 1015.07 1013.65 1014.04 1014.14 1014.42 1015.00 1015.25 1015.33 1015.36 1015.43 1015.51
1005.59 1006.13 1007.75 1008.44 1008.78 1009.36 1009.85 1010.42 1010.76 1011.05 1011.34 1011.81 1012.23 1012.54 1012.81 1013.12 1013.36 1013.61 1013.75 1013.89 1014.10 1014.28 1014.43 1014.59 1014.77 1014.89 1015.02 1015.20 1015.25 1015.27 1015.39 1015.41 1014.37 1013.72 1013.75 1014.00 1014.01 1015.11 1015.30 1015.33 1015.39 1015.43 1015.46
1005.52 1006.29 1007.46 1008.74 1009.08 1009.46 1009.93 1010.37 1010.67 1011.09 1011.49 1011.82 1012.12 1012.57 1012.83 1013.10 1013.37 1013.65 1013.89 1014.07 1014.20 1014.36 1014.44 1014.59 1014.80 1014.97 1015.09 1015.12 1015.22 1015.38 1015.43 1015.39 1014.52 1013.84 1013.89 1013.70 1014.75 1015.31 1015.62 1015.76 1015.71 1015.54 1015.42
1005.62 1006.48 1007.49 1008.42 1009.37 1009.98 1010.42 1010.65 1010.92 1011.22 1011.59 1011.92 1012.17 1012.45 1012.77 1013.10 1013.39 1013.72 1013.91 1014.07 1014.16 1014.25 1014.48 1014.65 1014.81 1014.94 1015.07 1015.32 1015.46 1015.44 1015.47 1015.35 1014.65 1013.66 1013.86 1013.63 1014.84 1014.94 1015.15 1015.36 1015.58 1015.59 1015.47
1005.52 1006.14 1007.13 1007.96 1008.87 1009.58 1010.28 1010.93 1011.19 1011.49 1011.76 1012.01 1012.31 1012.53 1012.93 1013.26 1013.56 1013.83 1014.03 1014.11 1014.16 1014.33 1014.50 1014.76 1014.97 1015.03 1015.08 1015.16 1015.23 1015.24 1015.18 1015.14 1013.99 1013.73 1013.45 1013.40 1014.13 1014.25 1014.25 1014.48 1014.61 1014.87 1015.08
1005.23 1005.86 1006.60 1007.57 1008.40 1008.82 1009.50 1010.69 1011.45 1011.78 1012.01 1012.30 1012.61 1012.91 1013.14 1012.80 1013.33 1013.70 1013.64 1013.96 1014.25 1014.35 1014.53 1014.72 1014.84 1014.94 1015.09 1015.04 1014.99 1014.88 1014.75 1013.44 1013.34 1013.10 1012.97 1013.63 1014.04 1013.98 1013.78 1013.60 1013.73 1013.87 1013.96
1004.87 1005.51 1006.20 1007.35 1008.03 1008.33 1008.88 1010.09 1010.74 1011.23 1011.67 1011.99 1012.21 1012.75 1012.54 1012.41 1012.81 1012.89 1013.28 1014.12 1014.41 1014.54 1014.57 1014.66 1014.74 1014.76 1014.80 1013.55 1013.93 1014.48 1013.59 1012.59 1012.76 1012.43 1012.50 1013.57 1013.99 1013.91 1013.87 1013.78 1013.65 1013.60 1013.70
1004.67 1005.40 1006.08 1007.39 1007.94 1008.12 1008.49 1009.49 1009.96 1010.44 1010.97 1011.54 1011.86 1012.28 1012.14 1012.25 1012.56 1012.87 1012.76 1013.61 1013.80 1014.33 1013.99 1014.32 1014.43 1014.19 1013.58 1013.08 1012.84 1012.71 1012.41 1012.62 1012.30 1012.00 1012.30 1013.39 1013.88 1013.75 1013.60 1013.55 1013.47 1013.32 1013.22
1004.54 1005.35 1006.24 1007.16 1007.92 1008.18 1008.14 1009.05 1009.21 1009.74 1010.38 1010.84 1011.33 1011.87 1011.79 1012.11 1012.26 1012.40 1012.24 1012.48 1012.98 1012.85 1013.14 1013.12 1012.99 1013.08 1013.21 1013.15 1012.82 1012.41 1012.42 1012.25 1011.79 1011.81 1012.14 1013.52 1013.80 1013.72 1013.36 1013.29 1013.19 1013.21 1013.13
1004.50 1005.24 1006.14 1007.05 1007.79 1008.31 1008.43 1008.81 1009.03 1009.29 1009.96 1010.19 1010.70 1011.36 1011.46 1011.66 1011.90 1012.05 1012.09 1012.14 1012.24 1012.37 1012.58 1012.89 1012.85 1012.83 1013.01 1012.85 1012.55 1012.36 1012.28 1012.27 1012.21 1012.15 1011.94 1013.02 1013.50 1013.57 1013.48 1013.04 1012.91 1012.85 1012.77
1004.40 1005.17 1005.99 1006.98 1007.75 1008.37 1008.48 1008.78 1009.17 1009.39 1009.60 1009.99 1010.16 1010.67 1011.43 1011.47 1011.68 1011.85 1012.23 1012.41 1012.31 1012.51 1012.54 1012.46 1012.54 1012.65 1012.63 1012.30 1012.25 1012.43 1012.37 1012.23 1012.25 1012.49 1012.12 1012.03 1012.66 1013.01 1013.23 1012.71 1012.71 1012.71 1012.55
1004.18 1004.99 1005.81 1006.85 1007.69 1008.36 1008.45 1008.97 1009.23 1009.35 1009.47 1009.71 1009.80 1010.53 1011.18 1011.62 1011.67 1011.97 1012.01 1012.29 1012.25 1012.62 1012.75 1012.85 1012.67 1012.55 1012.46 1012.29 1012.34 1012.53 1012.57 1012.70 1012.62 1012.51 1012.39 1012.31 1012.06 1012.40 1012.63 1012.64 1011.99 1012.42 1012.52
1003.88 1004.57 1005.60 1006.33 1007.34 1008.18 1008.53 1009.09 1009.17 1009.06 1009.26 1009.32 1009.59 1010.04 1010.95 1011.34 1011.60 1011.97 1011.79 1011.87 1011.99 1012.39 1012.32 1012.51 1012.60 1012.44 1012.37 1012.17 1012.27 1012.26 1012.22 1012.07 1012.23 1012.41 1012.41 1012.43 1012.11 1011.96 1011.85 1012.35 1011.76 1012.02 1012.47
1003.70 1004.30 1005.15 1005.89 1006.81 1007.84 1008.44 1008.77 1009.38 1009.38 1009.51 1009.33 1009.54 1010.03 1010.88 1011.35 1011.52 1011.61 1011.39 1011.36 1011.98 1012.17 1012.15 1012.31 1012.49 1012.55 1012.37 1012.45 1012.66 1012.54 1012.43 1011.90 1011.75 1011.56 1011.52 1011.94 1011.44 1011.76 1011.63 1011.72 1011.88 1011.63 1011.77
1003.46 1004.15 1005.01 1005.83 1006.75 1007.72 1008.46 1008.99 1009.49 1009.47 1009.54 1009.68 1010.41 1010.50 1010.63 1010.98 1011.24 1011.42 1011.37 1011.53 1012.02 1012.05 1012.21 1012.31 1012.65 1012.88 1013.16 1013.18 1012.93 1012.35 1011.80 1011.52 1011.43 1010.78 1010.88 1010.48 1010.26 1010.85 1011.13 1011.08 1010.97 1010.86 1011.04
1003.29 1003.94 1004.70 1005.67 1006.68 1007.67 1008.27 1008.81 1008.99 1009.30 1009.65 1009.82 1009.89 1010.07 1010.37 1010.46 1010.83 1011.25 1011.58 1011.63 1011.99 1011.86 1012.15 1012.90 1013.33 1013.66 1013.18 1013.16 1012.64 1011.63 1010.95 1010.40 1010.44 1009.88 1010.21 1010.03 1009.79 1009.94 1009.92 1010.29 1010.26 1009.75 1009.77
1002.96 1003.72 1004.55 1005.42 1006.55 1007.28 1007.78 1008.13 1008.53 1008.62 1009.26 1009.27 1009.65 1010.14 1010.20 1010.43 1010.69 1011.17 1011.40 1011.57 1012.25 1012.54 1012.86 1013.01 1012.99 1013.13 1012.71 1012.40 1011.73 1011.02 1010.17 1009.35 1009.42 1009.67 1009.52 1009.49 1009.60 1009.80 1009.42 1009.45 1009.86 1009.89 1009.77
1002.41 1003.45 1004.22 1004.94 1006.32 1007.08 1007.47 1008.23 1008.66 1008.82 1008.90 1009.21 1010.04 1010.42 1010.64 1010.77 1010.91 1011.33 1011.66 1011.98 1012.42 1012.68 1012.41 1012.51 1012.44 1012.50 1011.93 1011.28 1011.58 1011.08 1009.92 1008.73 1008.63 1008.87 1009.27 1009.15 1009.43 1009.63 1009.48 1009.37 1009.38 1009.52 1009.72
1001.74 1002.91 1004.03 1004.93 1006.21 1007.10 1007.59 1007.99 1008.05 1007.93 1008.05 1008.50 1009.26 1009.91 1010.50 1010.80 1010.95 1011.09 1011.32 1011.86 1012.30 1012.46 1012.45 1012.19 1012.00 1011.81 1011.42 1011.01 1010.41 1011.02 1010.69 1010.29 1009.52 1008.73 1008.43 1008.46 1008.59 1008.73 1008.89 1009.28 1009.19 1009.38 1009.43
1001.18 1002.50 1003.96 1005.12 1006.53 1007.36 1007.87 1007.91 1008.02 1008.03 1008.15 1008.55 1008.92 1009.62 1010.18 1010.64 1010.52 1010.81 1010.96 1011.71 1012.01 1012.10 1011.84 1011.69 1011.51 1011.56 1011.07 1011.20 1010.26 1009.90 1010.06 1010.11 1009.84 1009.70 1008.68 1008.37 1008.16 1008.18 1008.16 1008.33 1008.57 1009.14 1009.06
1001.23 1002.53 1004.16 1005.98 1006.93 1007.56 1007.78 1007.84 1008.13 1008.33 1008.47 1008.55 1009.02 1009.23 1009.67 1010.42 1010.53 1010.87 1010.94 1011.29 1011.63 1011.73 1011.64 1011.56 1011.55 1011.69 1011.60 1011.08 1010.76 1010.70 1010.34 1009.94 1009.56 1009.36 1008.98 1008.59 1008.02 1007.82 1007.73 1008.00 1008.08 1008.12 1008.10
Wind_Speed
18 21 17 16 15 15 16 18 20 19 18 18 18 17 16 15 15 15 15 13 11 12 12 12 13 12 11 11 11 11 10 11 11 10 10 9 8 7 7 6 5 8 7
20 21 18 18 16 17 17 18 19 19 18 18 18 17 16 15 15 14 14 11 11 11 11 11 11 11 11 11 11 11 10 9 9 9 9 10 7 6 5 4 2 9 5
21 20 20 18 18 17 17 18 18 18 18 18 17 17 15 15 14 14 13 11 11 11 11 10 10 10 11 12 11 10 9 8 7 6 8 7 10 7 5 4 2 2 3
20 19 21 18 18 18 18 18 18 18 18 17 17 17 16 15 14 13 12 11 12 12 12 11 11 11 11 10 10 10 9 8 6 6 9 3 5 10 5 5 4 4 3
19 19 19 18 17 17 16 17 17 18 18 17 17 17 16 15 14 13 12 11 11 11 11 11 11 11 10 11 10 8 6 5 4 10 2 1 1 13 8 7 8 9 8
20 19 20 18 18 17 16 15 17 18 17 17 17 16 16 15 14 13 12 11 11 12 11 11 10 9 10 9 9 7 4 3 8 2 1 3 7 12 7 8 8 6 7
20 18 20 18 18 18 18 18 17 17 18 17 16 16 16 14 13 12 11 11 11 11 11 11 10 9 9 8 7 6 3 4 11 4 2 1 5 4 6 9 9 9 9
18 18 20 17 18 18 18 17 17 17 17 18 18 17 16 15 14 12 11 11 11 10 11 11 10 9 8 8 7 4 0 5 9 2 3 1 10 5 6 9 9 10 11
17 18 18 18 16 16 15 16 16 16 17 17 17 17 17 16 14 13 12 11 11 11 10 10 10 9 8 5 3 3 1 3 10 2 5 3 8 2 4 7 11 12 12
17 17 18 17 18 17 16 14 15 16 16 16 16 16 15 14 12 12 10 11 12 10 10 8 8 8 7 7 6 5 5 10 11 6 5 2 4 7 8 8 8 12 13
15 16 17 18 17 17 17 14 13 14 14 13 13 12 12 11 13 14 12 14 11 10 9 9 9 8 8 8 9 9 10 7 7 6 5 9 7 9 10 11 11 11 14
19 18 17 16 17 16 13 15 14 13 12 12 13 14 11 10 11 11 10 9 8 8 9 9 9 9 11 10 10 11 9 7 7 6 5 6 7 9 8 8 8 9 11
19 15 16 15 14 16 12 11 9 8 9 9 13 12 10 8 9 8 7 8 9 10 8 9 9 9 11 7 8 7 8 7 7 5 3 6 5 7 6 6 7 8 10
19 18 17 18 16 15 11 11 11 9 9 9 11 13 9 7 8 8 7 8 8 8 9 8 6 8 8 10 10 10 9 8 5 5 4 7 7 8 6 5 6 6 5
19 19 18 17 16 14 12 10 10 10 9 11 11 13 10 9 8 8 7 7 6 7 7 7 8 6 9 10 10 9 9 8 7 5 3 9 7 8 7 3 4 5 6
18 18 17 18 16 14 12 12 9 9 10 10 10 11 13 9 7 8 7 8 7 7 7 7 8 8 9 9 8 8 8 7 6 6 6 4 8 7 7 3 3 5 3
17 16 17 17 15 15 14 10 9 9 9 10 9 10 12 10 8 8 7 6 6 5 7 6 7 8 8 6 7 6 6 7 8 8 7 7 5 10 9 9 1 6 5
16 18 17 15 16 16 12 11 10 8 9 8 8 9 12 11 10 9 7 8 7 7 7 7 7 7 7 6 6 6 7 7 9 10 10 9 7 7 8 8 1 3 4
17 16 17 17 17 16 12 9 7 8 7 7 5 4 7 10 11 10 9 8 7 7 7 7 8 7 6 5 6 6 8 10 11 10 10 8 10 8 6 2 7 6 4
15 15 15 13 13 13 8 6 7 7 7 3 4 8 10 9 11 10 9 8 8 8 7 7 8 2 3 5 6 7 9 10 9 8 10 9 7 6 8 9 6 8 7
14 15 16 14 12 9 8 8 8 9 7 7 8 6 8 8 9 9 7 8 8 8 5 2 3 6 8 6 6 10 11 9 10 7 6 6 6 10 7 6 6 5 5
15 15 15 14 12 10 8 8 7 6 7 6 6 5 6 7 8 9 10 7 7 4 6 5 4 5 7 9 5 7 8 3 8 5 5 4 4 6 6 6 5 8 7
15 16 15 15 14 10 11 7 8 7 5 7 4 5 5 6 7 8 6 5 5 7 6 7 8 9 10 7 8 7 7 7 6 6 6 6 4 6 8 9 8 10 9
15 14 13 13 13 9 12 11 11 8 6 5 6 5 5 7 7 8 7 5 7 7 8 9 8 8 8 9 6 8 8 9 7 8 8 6 8 9 6 8 9 11 12
13 12 12 12 11 10 8 9 8 6 4 4 4 5 4 5 6 7 7 7 9 8 9 9 7 7 7 9 8 7 6 7 9 9 12 12 10 10 10 8 10 10 13
11 12 12 13 10 10 9 8 6 6 4 3 3 4 5 5 5 6 6 6 7 7 6 7 4 7 8 5 6 6 8 8 9 10 12 13 14 14 12 11 11 10 11
Wind_Direction
151 145 153 146 141 142 143 146 143 146 146 147 150 149 150 150 147 140 134 132 130 127 128 128 131 132 123 119 118 117 118 119 120 125 124 125 129 134 139 134 190 132 112
146 149 153 147 147 147 149 146 145 146 147 149 149 149 150 148 144 139 133 134 123 127 126 127 129 127 124 122 123 124 126 127 132 138 143 148 147 149 147 133 299 84 126
147 150 163 152 149 149 150 144 144 145 145 145 146 145 145 145 142 136 132 131 131 132 133 134 134 131 133 133 133 133 134 138 145 152 204 217 128 156 156 155 164 121 167
148 155 162 155 150 149 146 142 143 144 145 144 144 144 143 141 137 133 136 140 143 144 144 146 147 144 142 140 139 139 144 151 156 192 219 106 121 150 169 174 185 190 216
155 161 152 156 152 148 146 145 145 144 144 143 143 142 141 140 140 140 142 145 153 152 152 151 149 144 142 141 142 142 145 152 186 234 79 188 302 137 180 194 191 198 210
159 162 144 155 151 149 149 150 150 146 144 144 144 143 143 143 142 145 147 153 159 158 155 151 148 145 145 147 146 143 152 191 241 194 91 129 267 124 185 210 232 236 214
161 159 159 159 153 151 153 156 152 149 147 145 145 144 144 144 143 147 151 156 156 159 157 154 154 152 156 157 154 153 163 266 276 137 164 32 65 124 207 228 230 230 234
163 156 157 158 153 155 157 157 153 151 149 149 149 149 150 151 153 154 156 155 157 163 164 163 163 163 160 163 163 151 175 299 254 316 303 259 82 22 287 270 252 242 242
164 163 160 165 158 153 156 157 156 154 155 155 154 155 157 158 159 159 159 164 166 168 170 167 168 170 170 164 136 130 209 284 286 323 288 260 85 45 300 290 269 258 252
169 168 167 167 168 169 164 163 158 160 160 161 160 160 161 159 160 166 169 176 173 174 174 172 174 175 171 169 166 171 198 242 245 261 236 191 153 207 212 232 244 245 248
174 173 172 168 172 179 170 162 159 163 163 162 162 161 157 180 178 169 197 159 184 181 176 176 180 181 186 187 193 196 219 235 248 239 247 138 219 227 220 213 215 225 231
180 176 174 170 177 183 173 162 179 171 177 181 179 173 187 186 189 187 174 171 195 191 189 187 187 192 207 213 190 203 233 231 239 246 255 146 234 246 249 246 242 241 243
181 175 178 171 181 185 180 169 182 178 179 186 187 180 200 187 190 205 188 195 206 196 207 193 194 221 222 242 242 240 239 235 249 242 158 147 237 245 261 265 259 251 241
185 185 177 175 183 194 182 183 185 186 185 192 193 189 194 200 189 208 209 200 209 200 230 212 219 236 236 237 252 254 243 261 250 258 150 160 240 252 247 256 288 294 275
188 187 180 184 186 190 197 188 198 197 190 198 191 193 201 206 197 203 210 224 215 223 213 236 241 232 235 242 251 251 260 262 271 269 293 168 240 260 269 309 324 327 330
189 191 182 189 187 192 195 192 196 203 188 206 200 195 208 212 197 207 210 218 220 232 241 237 232 243 237 253 244 258 255 260 246 272 271 247 190 237 264 259 317 315 342
194 186 187 189 182 195 198 188 204 192 218 205 207 201 205 211 203 237 219 225 224 226 241 241 250 235 252 241 257 239 253 244 264 266 270 289 272 211 237 249 101 333 310
194 191 187 189 183 194 190 185 212 207 213 211 206 195 208 207 222 208 221 221 220 223 218 231 234 237 248 237 257 263 255 265 274 275 267 263 260 256 209 232 326 225 273
200 191 192 191 189 195 191 189 200 210 229 221 214 219 167 212 217 232 230 225 215 227 222 220 228 244 247 271 296 291 270 263 258 258 271 252 236 249 253 233 221 207 212
199 195 194 190 194 188 178 165 177 198 213 172 200 208 199 214 220 222 238 236 215 230 222 227 239 286 332 286 284 285 285 274 263 238 247 255 254 236 234 247 260 207 169
192 194 192 186 175 164 159 175 175 184 188 191 204 204 211 214 221 219 241 216 222 234 223 192 261 269 264 243 246 263 242 229 233 252 239 240 210 229 261 269 260 267 250
190 194 194 180 161 164 169 193 177 175 187 192 189 207 224 225 214 223 233 228 210 205 211 205 197 257 261 249 272 286 267 243 203 217 260 244 249 292 270 253 290 282 287
193 191 191 185 158 183 148 150 163 168 171 186 176 193 209 221 213 219 229 235 201 228 230 237 231 237 255 248 231 283 288 282 350 269 204 249 311 298 318 293 278 280 287
197 189 185 178 143 170 145 171 178 186 190 195 201 184 196 209 212 218 215 207 222 219 229 250 240 237 232 261 233 235 274 301 290 290 282 259 248 268 277 287 294 294 291
194 174 168 154 141 145 168 178 183 207 167 171 182 162 202 205 219 230 222 217 228 226 225 247 236 235 251 256 280 276 255 268 252 273 292 294 292 290 288 297 299 300 278
178 160 136 126 128 145 169 172 187 162 168 167 171 207 167 203 201 217 214 221 223 234 233 234 247 248 253 288 296 294 282 292 299 296 290 287 293 294 295 295 285 281 285